Showing default

YAOGAN 25A, 40338

Orbit data source: Space-Track

YAOGAN 25A, 40338 is a payload satellite owned by PLA GAD (CN) in LEO that was launched on Wed, 10 Dec 2014 UTC via a CHANG ZHENG 4C launch vehicle from the Jiuquan Satellite Launch Center, China (JSC). Payload-class satellites include a variety of spacecraft equipped with specific instruments for various scientific and technological missions. These include communications satellites like Starlink; space stations such as the ISS; scientific satellites like the Hubble; Earth observation satellites from companies like Planet Labs, Umbra, and HawkEye 360; GPS; miniature CubeSats for education and research; and military/defense satellites.

Loading next visibility...
Identifier
40338, 2014-080A
Orbit
LEO
Country
Flag of CNCN / PRC
Related business
Manufacturer
CAST
Mission
Operational Defense Sigint
Bus & Motor
JB-8, Unknown motor
Mass
~500 kg wet, ~500 kg dry
Launch date (UTC)
2014-12-10 (12 years ago)
Launch vehicle
CHANG ZHENG 4C
Launch site
Jiuquan Satellite Launch Center, China (JSC)
Object type
Payload
Rocket body
Debris
Shape & HBR
Box + 2 Pan, 0.5 m
Radar Cross Section
0.446 m², Large (>1 m²)

Expand to show TLE details & history
Last TLE update: 22 hours ago

TLE from 22 hours ago
0 YAOGAN 25A
1 40338U 14080A   26172.51789191 -.00000136  00000-0 -50685-4 0  9990
2 40338  63.3890 299.6246 0366955   9.1776 351.5720 13.45412604566247
Epoch: 2026-06-21T12:25Z
TLE epoch observation values (Epoch: 2026-06-21T12:25:45.861Z)
Latitude
0.00006°
Longitude
-156.53348°
Altitude
820.097 km
Speed
7.577 km/s
True Right ascension
19h 58m 29s
True Declination
0° 00' 00"
Sunlit
Object was in full shadow at epoch
Visualization orbit readout
Latitude
Unknown
Longitude
Unknown
Altitude
Unknown
Speed
Unknown
Apparent Right ascension
Unknown
Apparent Declination
Unknown
Sunlit
N/A
Visualization observer readout
Local Sidereal Time
21:37:30
Azimuth
Unknown
Elevation
Unknown
Doppler factor
Unknown
Orbital elements
Apogee altitude
1,361.987 km
Perigee altitude
814.039 km
Semi-major axis
7,466.15 km
Eccentricity
0.0367
Inclination
63.389°
RAAN
299.6246°
Arg. of periapsis
9.1776°
True anomaly
350.92647°
Mean anomaly
351.572°
Eccentric anomaly
351.25224°
Mean motion
3.36433 °/min
Orbital period
107.01 mins
BSTAR
-0.000050685
Loading maneuver chart data...
Computing Atmospheric mass density...
Loading historical data...
Loading historical data...
Loading historical data...
Loading historical data...
Loading historical data...
Loading historical data...
Loading historical data...

Documentation

Showing up to 5 results
|